QPF
0.00 0.00 0.00 0.00 0.00 0.00 0.00 0.00 0.00 0.00 0.00 0.00 0.00 0.00 0.00 0.00 0.00 0.00 0.00 0.00 0.00 0.00 0.00 0.00 0.00 0.00 0.00 0.00 0.00 0.00 0.00 0.00 0.00 0.00 0.00 0.00 0.00 0.00 0.00 0.00 0.00 0.00 0.00 0.00
0.00 0.00 0.00 0.00 0.00 0.00 0.00 0.00 0.00 0.00 0.00 0.00 0.00 0.00 0.00 0.00 0.00 0.00 0.00 0.00 0.00 0.00 0.00 0.00 0.00 0.00 0.00 0.00 0.00 0.00 0.00 0.00 0.00 0.00 0.00 0.00 0.00 0.00 0.00 0.00 0.00 0.00 0.00 0.00
0.00 0.00 0.00 0.00 0.00 0.00 0.00 0.00 0.00 0.00 0.00 0.00 0.00 0.00 0.00 0.00 0.00 0.00 0.00 0.00 0.00 0.00 0.00 0.00 0.00 0.00 0.00 0.00 0.00 0.00 0.00 0.00 0.00 0.00 0.00 0.00 0.00 0.00 0.00 0.00 0.00 0.00 0.00 0.01
0.00 0.00 0.00 0.00 0.00 0.00 0.00 0.00 0.00 0.00 0.00 0.00 0.00 0.00 0.00 0.00 0.00 0.00 0.00 0.00 0.00 0.00 0.00 0.00 0.00 0.00 0.00 0.00 0.00 0.00 0.00 0.00 0.00 0.00 0.00 0.00 0.00 0.00 0.00 0.00 0.00 0.00 0.01 0.06
0.00 0.00 0.00 0.00 0.00 0.00 0.00 0.00 0.00 0.00 0.00 0.00 0.00 0.00 0.00 0.00 0.00 0.00 0.00 0.00 0.00 0.00 0.00 0.00 0.00 0.00 0.00 0.00 0.00 0.00 0.00 0.00 0.00 0.00 0.00 0.00 0.00 0.00 0.00 0.01 0.01 0.01 0.04 0.10
0.00 0.00 0.00 0.00 0.00 0.00 0.00 0.00 0.00 0.00 0.00 0.00 0.00 0.00 0.00 0.00 0.00 0.00 0.00 0.00 0.00 0.00 0.00 0.00 0.00 0.00 0.00 0.00 0.00 0.00 0.00 0.00 0.00 0.00 0.00 0.00 0.02 0.03 0.01 0.03 0.01 0.01 0.01 0.02
0.00 0.00 0.00 0.00 0.00 0.00 0.00 0.00 0.00 0.00 0.00 0.00 0.00 0.00 0.00 0.00 0.00 0.00 0.00 0.00 0.00 0.00 0.00 0.00 0.00 0.00 0.00 0.00 0.00 0.00 0.00 0.00 0.00 0.00 0.00 0.00 0.01 0.03 0.04 0.04 0.07 0.09 0.07 0.12
0.00 0.00 0.00 0.00 0.00 0.00 0.00 0.00 0.00 0.00 0.00 0.00 0.00 0.00 0.00 0.00 0.00 0.00 0.00 0.00 0.00 0.00 0.00 0.00 0.00 0.00 0.00 0.00 0.00 0.00 0.00 0.01 0.02 0.00 0.00 0.00 0.01 0.04 0.08 0.07 0.05 0.03 0.06 0.06
0.00 0.00 0.00 0.00 0.00 0.00 0.00 0.00 0.00 0.00 0.00 0.00 0.00 0.00 0.00 0.00 0.00 0.00 0.00 0.00 0.00 0.00 0.00 0.00 0.00 0.00 0.00 0.00 0.00 0.00 0.01 0.01 0.00 0.00 0.00 0.00 0.03 0.07 0.08 0.05 0.04 0.03 0.03 0.01
0.00 0.00 0.00 0.00 0.00 0.00 0.00 0.00 0.00 0.00 0.00 0.00 0.00 0.00 0.00 0.00 0.00 0.00 0.00 0.00 0.00 0.00 0.00 0.00 0.00 0.00 0.00 0.00 0.00 0.00 0.00 0.00 0.00 0.00 0.00 0.00 0.01 0.04 0.07 0.09 0.10 0.05 0.03 0.00
0.00 0.00 0.00 0.00 0.00 0.00 0.00 0.00 0.00 0.00 0.00 0.00 0.00 0.00 0.00 0.00 0.00 0.00 0.00 0.00 0.00 0.00 0.00 0.00 0.00 0.01 0.00 0.00 0.00 0.00 0.00 0.00 0.00 0.00 0.00 0.00 0.00 0.01 0.04 0.10 0.14 0.03 0.00 0.00
0.00 0.00 0.00 0.00 0.00 0.00 0.00 0.00 0.00 0.00 0.00 0.00 0.00 0.00 0.00 0.00 0.00 0.00 0.00 0.00 0.00 0.00 0.00 0.00 0.01 0.00 0.00 0.00 0.00 0.00 0.00 0.00 0.00 0.00 0.00 0.00 0.00 0.00 0.03 0.07 0.05 0.00 0.00 0.00
0.00 0.00 0.00 0.00 0.00 0.00 0.00 0.00 0.00 0.00 0.00 0.00 0.00 0.00 0.00 0.00 0.00 0.00 0.00 0.00 0.00 0.00 0.00 0.00 0.00 0.00 0.00 0.00 0.00 0.00 0.00 0.00 0.00 0.00 0.00 0.00 0.00 0.01 0.02 0.04 0.02 0.00 0.00 0.00
0.00 0.00 0.00 0.00 0.00 0.00 0.00 0.00 0.00 0.00 0.00 0.00 0.00 0.00 0.00 0.00 0.00 0.00 0.00 0.00 0.00 0.00 0.00 0.00 0.00 0.00 0.00 0.00 0.00 0.00 0.00 0.00 0.00 0.00 0.00 0.00 0.00 0.01 0.05 0.03 0.00 0.00 0.00 0.00
0.00 0.00 0.00 0.00 0.00 0.00 0.00 0.00 0.00 0.00 0.00 0.00 0.00 0.00 0.00 0.00 0.00 0.00 0.00 0.00 0.00 0.00 0.00 0.00 0.00 0.00 0.00 0.00 0.00 0.00 0.00 0.00 0.00 0.00 0.00 0.00 0.00 0.02 0.05 0.00 0.00 0.00 0.00 0.00
0.00 0.00 0.00 0.00 0.00 0.00 0.00 0.00 0.00 0.00 0.00 0.00 0.00 0.00 0.00 0.00 0.00 0.00 0.00 0.00 0.00 0.00 0.00 0.00 0.00 0.00 0.00 0.00 0.00 0.00 0.00 0.00 0.00 0.00 0.00 0.00 0.00 0.05 0.02 0.00 0.00 0.00 0.00 0.00
0.00 0.00 0.00 0.00 0.00 0.00 0.00 0.00 0.00 0.00 0.00 0.00 0.00 0.00 0.00 0.00 0.00 0.00 0.00 0.00 0.00 0.00 0.00 0.00 0.00 0.00 0.00 0.00 0.00 0.00 0.00 0.00 0.00 0.00 0.00 0.00 0.02 0.04 0.00 0.00 0.00 0.00 0.00 0.00
0.00 0.00 0.00 0.00 0.00 0.00 0.00 0.00 0.00 0.00 0.00 0.00 0.00 0.00 0.00 0.00 0.00 0.00 0.00 0.00 0.00 0.00 0.00 0.00 0.00 0.00 0.00 0.00 0.00 0.00 0.00 0.00 0.00 0.00 0.00 0.01 0.04 0.00 0.00 0.00 0.00 0.00 0.00 0.00
0.00 0.00 0.01 0.00 0.00 0.00 0.00 0.00 0.00 0.00 0.00 0.00 0.00 0.00 0.00 0.00 0.00 0.00 0.00 0.00 0.00 0.00 0.00 0.00 0.00 0.00 0.00 0.00 0.00 0.00 0.00 0.00 0.00 0.00 0.01 0.02 0.01 0.00 0.00 0.00 0.00 0.00 0.00 0.00
0.00 0.00 0.01 0.01 0.01 0.00 0.00 0.00 0.00 0.00 0.00 0.02 0.01 0.00 0.00 0.00 0.01 0.00 0.00 0.00 0.00 0.00 0.00 0.00 0.00 0.00 0.00 0.00 0.00 0.00 0.00 0.00 0.00 0.01 0.01 0.00 0.00 0.00 0.00 0.00 0.00 0.00 0.00 0.00
0.00 0.00 0.01 0.01 0.02 0.00 0.00 0.00 0.00 0.01 0.02 0.00 0.00 0.00 0.00 0.01 0.01 0.00 0.00 0.00 0.00 0.00 0.00 0.00 0.00 0.01 0.00 0.00 0.00 0.00 0.00 0.00 0.01 0.00 0.00 0.00 0.00 0.00 0.00 0.00 0.00 0.00 0.00 0.00
0.00 0.00 0.01 0.01 0.03 0.02 0.00 0.00 0.00 0.01 0.00 0.00 0.00 0.00 0.00 0.00 0.00 0.00 0.00 0.00 0.00 0.00 0.00 0.00 0.01 0.00 0.00 0.01 0.01 0.00 0.00 0.01 0.01 0.00 0.00 0.00 0.00 0.00 0.00 0.00 0.00 0.00 0.01 0.01
0.00 0.00 0.00 0.00 0.00 0.00 0.00 0.00 0.00 0.00 0.00 0.00 0.00 0.00 0.00 0.00 0.00 0.00 0.00 0.00 0.00 0.00 0.00 0.00 0.00 0.00 0.00 0.01 0.00 0.00 0.00 0.00 0.00 0.00 0.00 0.00 0.00 0.00 0.00 0.01 0.01 0.02 0.02 0.01
0.00 0.00 0.00 0.00 0.00 0.00 0.00 0.00 0.00 0.00 0.01 0.01 0.00 0.00 0.00 0.00 0.00 0.00 0.00 0.00 0.00 0.00 0.00 0.00 0.00 0.00 0.00 0.00 0.00 0.00 0.00 0.00 0.00 0.00 0.00 0.00 0.00 0.00 0.00 0.01 0.01 0.01 0.01 0.00
0.00 0.00 0.00 0.00 0.00 0.00 0.00 0.00 0.00 0.00 0.01 0.00 0.00 0.00 0.00 0.00 0.00 0.00 0.00 0.00 0.00 0.00 0.00 0.00 0.00 0.00 0.00 0.00 0.00 0.00 0.00 0.00 0.00 0.00 0.00 0.00 0.00 0.00 0.00 0.00 0.00 0.00 0.00 0.00
0.00 0.00 0.01 0.01 0.00 0.01 0.00 0.00 0.00 0.01 0.00 0.00 0.00 0.00 0.00 0.00 0.00 0.00 0.00 0.00 0.00 0.00 0.00 0.00 0.00 0.00 0.00 0.00 0.00 0.00 0.00 0.00 0.00 0.00 0.00 0.00 0.00 0.00 0.00 0.00 0.00 0.00 0.00 0.00
MSLP
1005.00 1004.70 1004.32 1004.79 1005.39 1005.44 1005.07 1004.62 1004.16 1003.71 1003.46 1003.85 1003.92 1003.67 1003.45 1003.06 1002.69 1002.62 1003.13 1004.11 1005.38 1006.45 1007.21 1007.85 1008.44 1008.86 1009.24 1009.43 1009.63 1009.83 1009.89 1009.81 1009.43 1008.46 1007.77 1007.03 1006.26 1005.30 1004.58 1004.08 1003.67 1003.78 1003.85 1004.05
1004.91 1004.17 1005.02 1005.64 1005.76 1005.72 1005.35 1004.91 1004.41 1004.30 1004.35 1004.87 1004.44 1003.82 1003.13 1002.38 1002.33 1003.03 1003.89 1004.91 1005.76 1006.50 1007.20 1007.87 1008.35 1008.73 1008.96 1009.21 1009.34 1009.57 1009.70 1009.73 1009.55 1009.08 1008.47 1007.18 1006.51 1005.66 1005.02 1004.23 1003.17 1003.23 1003.43 1003.75
1005.14 1004.80 1005.66 1006.01 1005.94 1005.68 1005.54 1005.33 1005.54 1005.69 1005.53 1005.40 1004.40 1003.44 1002.72 1002.27 1002.63 1003.64 1004.50 1005.20 1005.94 1006.38 1007.08 1007.83 1008.29 1008.69 1008.90 1009.12 1009.11 1009.25 1009.43 1009.54 1009.58 1009.35 1008.49 1007.29 1006.09 1005.20 1004.49 1003.68 1002.94 1002.77 1003.05 1003.07
1005.50 1005.31 1005.94 1006.18 1005.95 1005.95 1006.10 1006.28 1006.57 1006.46 1006.28 1005.49 1005.25 1003.37 1002.17 1002.04 1002.91 1003.20 1003.93 1004.79 1005.39 1006.09 1006.90 1007.67 1008.13 1008.52 1008.80 1008.79 1008.91 1009.26 1009.31 1009.56 1009.37 1009.51 1009.08 1007.95 1006.57 1005.51 1004.69 1003.95 1002.84 1002.79 1002.85 1003.68
1005.68 1005.77 1005.95 1006.25 1006.38 1006.91 1007.14 1007.36 1007.51 1007.01 1006.21 1005.42 1004.34 1003.50 1002.47 1002.68 1002.51 1002.84 1003.67 1004.41 1005.37 1006.23 1006.86 1007.76 1008.17 1008.35 1008.73 1008.82 1009.25 1009.39 1009.78 1009.76 1009.68 1009.63 1009.62 1008.59 1007.48 1006.53 1005.29 1004.53 1004.32 1003.98 1003.95 1004.09
1006.36 1006.28 1006.70 1006.88 1007.25 1007.41 1007.31 1007.60 1007.22 1006.63 1005.50 1004.87 1004.22 1004.54 1004.03 1003.57 1003.92 1003.94 1004.54 1005.38 1006.40 1006.89 1007.52 1008.12 1008.38 1008.63 1009.08 1009.63 1009.93 1010.04 1009.62 1010.05 1009.97 1009.73 1010.10 1009.28 1008.34 1007.45 1006.28 1005.20 1004.79 1004.68 1004.77 1003.83
1006.09 1006.03 1006.78 1007.58 1007.64 1007.45 1007.56 1007.97 1007.47 1006.84 1006.18 1005.74 1005.72 1005.78 1006.47 1005.78 1005.97 1006.52 1006.96 1007.58 1008.30 1008.93 1009.19 1009.76 1009.50 1009.61 1010.28 1010.21 1010.50 1010.71 1011.08 1010.58 1010.37 1010.10 1010.55 1009.90 1009.20 1008.47 1007.58 1006.87 1006.29 1005.53 1004.85 1003.83
1007.30 1006.95 1007.04 1007.78 1008.28 1008.44 1008.38 1008.63 1008.46 1007.84 1007.83 1007.31 1007.62 1006.50 1008.03 1007.75 1007.94 1008.34 1009.16 1009.92 1010.56 1011.54 1011.55 1013.12 1011.87 1012.36 1011.47 1010.97 1011.42 1011.59 1011.61 1011.55 1011.64 1010.08 1010.55 1010.45 1009.99 1009.48 1008.54 1007.67 1007.17 1006.97 1006.64 1006.09
1009.02 1008.26 1008.15 1008.31 1008.32 1009.07 1008.81 1009.06 1008.95 1009.14 1009.46 1008.44 1007.64 1007.13 1006.67 1007.78 1008.49 1009.30 1010.15 1011.27 1011.95 1012.39 1012.96 1013.08 1013.59 1013.51 1011.99 1011.51 1011.73 1011.93 1011.83 1010.96 1010.97 1010.84 1010.80 1010.58 1010.55 1009.98 1009.01 1008.09 1007.65 1007.68 1007.47 1006.85
1010.89 1010.48 1009.42 1008.78 1009.31 1009.40 1008.94 1009.06 1009.51 1010.18 1009.95 1009.12 1008.23 1007.97 1007.40 1007.85 1008.80 1009.80 1010.41 1011.49 1012.32 1013.22 1013.52 1013.59 1013.48 1013.74 1013.17 1012.41 1011.31 1011.86 1011.81 1011.41 1010.93 1010.74 1010.77 1010.68 1010.59 1010.48 1009.39 1008.25 1008.55 1007.97 1007.26 1006.80
1012.25 1011.85 1010.73 1010.04 1009.24 1008.57 1008.72 1008.88 1009.43 1010.10 1010.75 1010.38 1009.52 1008.85 1008.94 1009.17 1009.19 1010.52 1011.26 1011.57 1012.76 1013.63 1013.74 1013.67 1014.03 1013.81 1013.25 1014.00 1012.11 1011.62 1011.55 1011.41 1010.98 1010.91 1010.81 1010.52 1010.54 1010.57 1009.76 1008.96 1009.70 1009.27 1008.59 1008.09
1013.63 1013.35 1012.34 1011.05 1009.88 1009.36 1009.90 1010.21 1010.56 1010.93 1011.26 1011.35 1010.92 1009.56 1009.37 1009.16 1009.78 1010.71 1010.97 1011.53 1012.65 1013.21 1013.63 1013.94 1014.35 1014.19 1013.82 1013.17 1012.08 1011.80 1011.54 1011.44 1011.16 1010.45 1010.62 1010.63 1010.41 1010.58 1010.57 1010.26 1010.02 1009.31 1010.40 1009.75
1015.26 1014.49 1013.58 1011.67 1010.07 1010.16 1010.41 1010.02 1010.36 1010.70 1011.05 1011.12 1010.90 1009.78 1009.24 1009.08 1009.95 1010.70 1011.40 1012.29 1012.91 1013.18 1013.49 1013.90 1013.70 1013.58 1013.13 1012.63 1012.22 1012.10 1011.85 1011.84 1011.31 1011.09 1010.84 1010.78 1010.58 1010.34 1010.45 1010.51 1010.43 1010.45 1011.44 1011.15
1016.19 1016.06 1014.91 1013.58 1012.18 1011.71 1010.89 1010.58 1010.44 1010.67 1010.83 1010.72 1010.46 1009.49 1009.47 1010.11 1010.83 1011.32 1011.84 1012.70 1012.98 1013.16 1013.17 1013.21 1013.25 1013.31 1013.25 1012.88 1012.54 1012.33 1012.27 1012.12 1011.78 1011.50 1011.21 1011.07 1010.71 1010.52 1010.40 1010.99 1010.97 1011.54 1012.10 1011.56
1016.08 1015.94 1015.40 1014.45 1013.57 1012.61 1011.43 1010.53 1010.13 1009.94 1009.95 1010.07 1009.95 1009.65 1010.31 1010.89 1011.47 1011.88 1012.31 1012.59 1012.92 1013.20 1013.23 1013.34 1013.57 1013.83 1013.36 1013.18 1013.04 1012.93 1012.71 1012.64 1012.34 1011.92 1011.64 1011.21 1010.75 1010.57 1011.02 1011.58 1011.88 1012.36 1012.25 1011.77
1015.78 1016.29 1016.11 1015.11 1013.96 1012.25 1010.88 1010.45 1010.16 1009.81 1009.59 1009.56 1009.66 1009.76 1010.20 1011.14 1011.95 1012.16 1012.70 1013.03 1013.22 1013.60 1013.72 1013.67 1013.55 1013.59 1013.51 1013.70 1013.43 1013.21 1013.35 1013.12 1012.57 1012.32 1011.97 1011.38 1010.94 1011.22 1011.54 1011.98 1012.46 1012.72 1012.65 1012.50
1016.08 1016.70 1017.01 1015.67 1014.32 1013.53 1011.82 1010.21 1010.09 1010.04 1010.10 1010.31 1010.67 1011.08 1011.40 1012.25 1012.86 1013.20 1013.31 1013.50 1013.91 1014.00 1014.02 1014.16 1014.13 1014.03 1014.02 1014.11 1014.15 1014.03 1013.65 1013.45 1012.91 1012.53 1012.06 1011.49 1011.27 1011.84 1012.08 1012.54 1012.93 1013.18 1013.11 1012.83
1016.37 1017.62 1017.89 1016.98 1015.99 1014.25 1011.55 1011.20 1010.52 1010.88 1011.05 1011.32 1012.05 1012.38 1013.07 1013.36 1013.45 1013.86 1013.70 1014.17 1014.43 1014.56 1014.35 1014.22 1014.25 1014.21 1014.22 1014.30 1014.38 1014.21 1013.90 1013.57 1013.08 1012.62 1012.21 1011.81 1012.06 1012.16 1012.78 1013.06 1013.43 1013.47 1013.55 1013.45
1015.82 1017.38 1018.34 1017.98 1016.78 1015.09 1012.51 1011.86 1011.50 1011.49 1012.13 1012.75 1013.54 1014.09 1014.30 1014.14 1013.85 1013.66 1013.96 1014.43 1014.67 1014.70 1014.56 1014.61 1014.50 1014.19 1014.11 1014.08 1014.24 1014.09 1013.94 1013.61 1013.21 1012.80 1012.74 1012.77 1012.88 1012.87 1013.27 1013.67 1013.95 1014.02 1014.01 1013.83
1015.23 1016.65 1017.87 1017.65 1016.82 1014.88 1012.39 1012.27 1012.38 1012.49 1012.92 1014.08 1014.38 1014.43 1014.41 1014.26 1014.24 1014.24 1014.78 1014.77 1014.67 1014.74 1014.81 1014.70 1014.35 1014.13 1013.92 1013.59 1013.76 1013.87 1013.64 1013.47 1013.17 1013.15 1013.62 1013.73 1013.63 1013.84 1014.09 1014.33 1014.50 1014.45 1014.16 1013.98
1014.64 1016.06 1016.58 1016.50 1016.12 1014.45 1013.20 1013.36 1013.20 1013.54 1014.60 1014.56 1014.64 1014.76 1015.10 1015.12 1015.17 1014.76 1014.61 1014.68 1014.96 1014.98 1014.72 1014.53 1014.28 1014.15 1013.54 1013.39 1013.44 1013.58 1013.56 1013.58 1013.56 1013.80 1014.14 1014.46 1014.67 1014.70 1014.81 1014.87 1014.79 1014.63 1014.38 1013.87
1013.81 1014.62 1015.06 1015.22 1015.15 1014.14 1013.70 1013.71 1014.92 1014.83 1014.72 1014.70 1014.73 1014.93 1015.14 1015.04 1015.00 1015.08 1014.98 1014.92 1014.99 1014.67 1014.67 1014.66 1014.48 1014.15 1013.91 1013.58 1013.49 1013.64 1013.80 1013.82 1014.10 1014.39 1014.81 1015.16 1015.22 1015.32 1015.43 1015.35 1015.02 1014.64 1014.32 1014.08
1013.44 1013.90 1014.38 1014.59 1013.90 1013.14 1013.36 1013.73 1014.16 1014.21 1014.33 1014.77 1014.96 1014.97 1015.02 1015.18 1015.00 1015.04 1015.16 1015.16 1014.82 1014.85 1014.90 1014.85 1014.92 1014.73 1014.33 1014.00 1014.07 1014.09 1013.99 1014.31 1014.66 1015.15 1015.51 1015.64 1015.77 1015.86 1015.66 1015.32 1015.00 1014.72 1014.43 1014.32
1013.76 1013.88 1014.02 1014.20 1013.97 1013.74 1013.71 1013.82 1013.81 1014.40 1014.81 1015.03 1014.88 1015.08 1015.41 1015.27 1015.45 1015.41 1015.27 1015.08 1014.93 1015.04 1015.03 1015.19 1015.10 1014.91 1014.59 1014.36 1014.15 1014.05 1014.33 1014.85 1015.32 1015.75 1015.88 1016.15 1016.25 1016.30 1016.00 1015.58 1015.41 1015.28 1015.02 1014.73
1013.80 1013.81 1013.91 1013.79 1013.82 1013.73 1013.75 1013.85 1014.24 1014.40 1014.73 1014.78 1014.99 1015.24 1015.22 1015.28 1015.28 1015.50 1015.28 1015.16 1015.13 1015.26 1015.22 1015.28 1015.11 1014.87 1014.55 1014.35 1014.14 1014.48 1015.01 1015.45 1015.96 1016.22 1016.46 1016.70 1016.62 1016.43 1016.39 1016.48 1016.35 1016.11 1016.28 1015.71
1013.62 1013.85 1014.23 1014.05 1014.10 1014.05 1013.87 1014.00 1014.07 1014.22 1015.13 1015.42 1015.60 1015.49 1015.48 1015.42 1015.52 1015.59 1015.51 1015.34 1015.43 1015.16 1015.05 1014.89 1014.86 1014.75 1014.60 1014.45 1014.74 1015.27 1015.68 1015.99 1016.32 1016.56 1016.86 1016.73 1016.44 1016.57 1016.77 1016.93 1017.03 1016.91 1016.70 1016.47
Thickness
5769 5754 5748 5752 5753 5752 5751 5748 5745 5760 5771 5753 5744 5743 5749 5759 5760 5756 5747 5738 5725 5713 5712 5708 5703 5699 5696 5694 5692 5688 5687 5688 5691 5698 5702 5708 5714 5723 5731 5739 5745 5743 5743 5736
5754 5747 5757 5755 5753 5747 5747 5742 5744 5754 5757 5739 5735 5731 5746 5754 5749 5743 5732 5724 5714 5707 5700 5695 5692 5688 5684 5682 5681 5681 5679 5678 5678 5682 5686 5698 5702 5709 5716 5725 5736 5738 5735 5732
5737 5750 5754 5745 5741 5739 5740 5733 5728 5722 5733 5734 5729 5723 5732 5747 5740 5731 5725 5720 5711 5701 5692 5686 5680 5676 5674 5671 5670 5670 5672 5669 5667 5669 5675 5686 5696 5703 5707 5714 5723 5727 5726 5727
5741 5754 5741 5735 5733 5738 5717 5735 5724 5715 5705 5691 5717 5691 5728 5737 5726 5722 5712 5701 5695 5689 5680 5673 5666 5663 5663 5662 5659 5653 5657 5659 5656 5655 5656 5665 5677 5683 5693 5702 5714 5711 5716 5707
5731 5736 5734 5725 5728 5729 5713 5723 5710 5709 5705 5704 5713 5707 5733 5735 5729 5729 5718 5706 5693 5684 5676 5661 5658 5655 5650 5648 5641 5637 5636 5641 5640 5638 5638 5648 5657 5668 5681 5689 5689 5692 5694 5695
5732 5748 5734 5727 5727 5723 5725 5711 5710 5709 5713 5695 5720 5697 5702 5713 5708 5714 5712 5702 5685 5675 5663 5655 5652 5647 5638 5634 5624 5620 5620 5617 5621 5621 5619 5629 5637 5647 5660 5670 5672 5678 5682 5681
5731 5731 5731 5727 5708 5719 5711 5688 5668 5666 5675 5676 5700 5684 5671 5687 5685 5678 5674 5668 5661 5650 5645 5634 5631 5625 5616 5614 5606 5604 5597 5600 5603 5602 5599 5607 5616 5626 5637 5644 5650 5660 5671 5646
5697 5692 5713 5715 5700 5686 5689 5681 5660 5638 5644 5657 5677 5666 5643 5667 5666 5657 5646 5635 5630 5617 5609 5590 5596 5588 5594 5597 5587 5583 5580 5579 5578 5590 5585 5589 5597 5603 5615 5626 5634 5636 5640 5643
5681 5688 5712 5707 5708 5691 5679 5663 5684 5656 5656 5651 5665 5676 5693 5665 5649 5635 5620 5615 5606 5601 5591 5585 5577 5577 5586 5581 5575 5570 5571 5576 5573 5568 5573 5577 5579 5587 5598 5609 5618 5619 5622 5627
5678 5658 5693 5700 5694 5689 5677 5682 5645 5643 5613 5617 5647 5643 5648 5642 5631 5620 5616 5603 5596 5586 5579 5576 5576 5566 5568 5562 5570 5563 5563 5564 5568 5568 5567 5569 5570 5571 5584 5596 5597 5606 5615 5622
5671 5662 5668 5680 5673 5672 5670 5663 5661 5650 5636 5613 5611 5624 5642 5627 5622 5603 5600 5600 5586 5575 5571 5568 5561 5558 5557 5547 5559 5561 5559 5559 5562 5562 5561 5564 5564 5563 5572 5583 5579 5583 5592 5602
5654 5646 5634 5653 5676 5681 5664 5648 5642 5613 5606 5609 5598 5602 5636 5632 5614 5603 5599 5591 5581 5575 5567 5560 5552 5547 5544 5549 5556 5555 5554 5553 5554 5558 5556 5556 5558 5557 5556 5556 5557 5574 5567 5578
5633 5631 5616 5639 5661 5658 5642 5649 5643 5635 5624 5601 5588 5598 5633 5631 5611 5604 5588 5580 5572 5565 5559 5551 5549 5547 5548 5549 5549 5548 5548 5543 5548 5547 5548 5547 5547 5549 5546 5547 5551 5552 5552 5558
5624 5613 5616 5613 5629 5634 5628 5635 5636 5624 5597 5599 5598 5606 5614 5600 5593 5592 5582 5572 5565 5558 5552 5548 5543 5540 5537 5536 5538 5538 5537 5535 5537 5537 5537 5536 5537 5538 5539 5536 5540 5539 5537 5547
5623 5611 5616 5622 5623 5623 5625 5628 5628 5621 5619 5598 5604 5604 5594 5590 5584 5581 5576 5569 5561 5553 5546 5539 5531 5524 5526 5521 5523 5523 5524 5522 5524 5525 5526 5527 5529 5529 5528 5525 5527 5525 5531 5538
5621 5596 5603 5605 5615 5626 5625 5624 5621 5620 5618 5612 5608 5600 5605 5591 5581 5576 5564 5557 5552 5543 5537 5532 5528 5521 5517 5511 5510 5511 5509 5509 5512 5512 5513 5517 5518 5517 5518 5518 5518 5519 5524 5528
5604 5593 5583 5587 5608 5601 5598 5618 5614 5612 5610 5601 5582 5586 5584 5574 5566 5558 5553 5546 5539 5534 5528 5521 5516 5512 5507 5501 5497 5496 5499 5499 5502 5503 5506 5510 5512 5508 5510 5510 5510 5512 5517 5519
5592 5570 5574 5569 5578 5566 5610 5611 5612 5597 5596 5591 5579 5571 5563 5558 5560 5551 5547 5535 5528 5522 5519 5516 5511 5506 5500 5494 5489 5490 5491 5492 5495 5499 5502 5506 5501 5501 5501 5504 5504 5507 5507 5508
5599 5574 5555 5550 5553 5571 5595 5593 5590 5583 5573 5572 5557 5549 5547 5548 5551 5552 5541 5532 5522 5517 5513 5508 5504 5502 5496 5491 5485 5485 5486 5489 5493 5497 5497 5495 5495 5499 5499 5498 5498 5500 5500 5500
5592 5579 5552 5555 5543 5550 5589 5588 5586 5579 5555 5553 5548 5544 5542 5543 5529 5533 5529 5525 5518 5512 5506 5502 5501 5497 5493 5491 5485 5485 5489 5491 5495 5495 5487 5488 5491 5492 5493 5494 5493 5494 5496 5494
5576 5559 5553 5551 5540 5558 5577 5570 5569 5544 5539 5543 5540 5536 5528 5524 5521 5524 5526 5520 5511 5503 5501 5498 5496 5492 5495 5493 5490 5489 5490 5491 5492 5489 5487 5486 5487 5489 5490 5490 5490 5490 5487 5486
5581 5568 5563 5559 5543 5542 5567 5559 5532 5537 5540 5537 5534 5529 5523 5524 5520 5517 5514 5510 5502 5500 5495 5491 5490 5491 5490 5491 5491 5491 5490 5492 5490 5489 5487 5486 5487 5487 5485 5484 5484 5484 5481 5479
5570 5573 5559 5560 5559 5570 5565 5551 5544 5539 5535 5528 5522 5522 5518 5514 5515 5513 5507 5500 5498 5492 5485 5482 5482 5482 5485 5488 5488 5488 5492 5490 5489 5486 5485 5484 5484 5482 5482 5483 5481 5480 5479 5474
5573 5572 5557 5552 5558 5553 5552 5547 5542 5532 5523 5520 5520 5513 5505 5505 5502 5500 5501 5498 5493 5487 5480 5475 5476 5478 5483 5488 5490 5493 5492 5490 5487 5485 5484 5482 5481 5479 5480 5480 5475 5472 5473 5473
5562 5561 5552 5550 5549 5546 5543 5536 5527 5525 5520 5517 5508 5503 5501 5497 5496 5491 5493 5491 5489 5482 5477 5476 5478 5481 5485 5490 5495 5493 5490 5489 5485 5484 5481 5479 5479 5481 5477 5470 5470 5468 5463 5466
5558 5547 5536 5531 5538 5531 5530 5527 5524 5519 5507 5498 5493 5492 5489 5487 5485 5484 5484 5485 5481 5479 5480 5482 5485 5487 5489 5494 5494 5491 5489 5488 5486 5484 5481 5483 5486 5483 5479 5474 5469 5464 5463 5460